When you browse on this site, cookies collect data to enhance your experience and personalize the content and advertising you see.
Visit our Privacy Policy to learn more. By continuing to use the site, you agree to this use of cookies and data.
  • In Czech Republic
  • List of Countries
  • For 7 days
  • Water Temperature
  • Weather Map
  • Weather Widgets
  • user-avatar
    Login

    Hourly Weather Ivry-sur-Seine

    Today, 1 June, Monday

    Time Temperature Precipitation Wind Pressure Humidity
    00:00 +14°C° 0 mm 3 mps 757 mmHg 67%
    01:00 +13°C° 0 mm 3 mps 757 mmHg 68%
    02:00 +13°C° 0 mm 3 mps 757 mmHg 69%
    03:00 +12°C° 0 mm 3 mps 757 mmHg 71%
    04:00 +13°C° 0 mm 4 mps 757 mmHg 70%
    05:00 +13°C° 0 mm 4 mps 757 mmHg 69%
    06:00 +14°C° 0 mm 4 mps 757 mmHg 69%
    07:00 +15°C° 0 mm 4 mps 757 mmHg 64%
    08:00 +18°C° 0 mm 4 mps 757 mmHg 60%
    09:00 +20°C° 0 mm 5 mps 757 mmHg 56%
    10:00 +21°C° 0 mm 5 mps 757 mmHg 54%
    11:00 +22°C° 0 mm 5 mps 757 mmHg 51%
    12:00 +23°C° 0 mm 5 mps 757 mmHg 49%
    13:00 +25°C° 0 mm 5 mps 757 mmHg 50%
    14:00 +25°C° 0 mm 4 mps 757 mmHg 50%
    15:00 +26°C° 0 mm 4 mps 756 mmHg 51%
    16:00 +25°C° 0 mm 4 mps 756 mmHg 55%
    17:00 +25°C° 0 mm 4 mps 756 mmHg 58%
    18:00 +23°C° 0 mm 4 mps 756 mmHg 62%
    19:00 +22°C° 0 mm 3 mps 756 mmHg 65%
    20:00 +21°C° 0 mm 3 mps 757 mmHg 68%
    21:00 +19°C° 0 mm 3 mps 757 mmHg 71%
    22:00 +19°C° 0 mm 3 mps 757 mmHg 73%
    23:00 +18°C° 0 mm 3 mps 757 mmHg 76%

    Tomorrow, 2 June, Tuesday

    Time Temperature Precipitation Wind Pressure Humidity
    00:00 +17°C° 0 mm 3 mps 757 mmHg 78%
    01:00 +17°C° 0 mm 3 mps 757 mmHg 78%
    02:00 +16°C° 0 mm 2 mps 756 mmHg 79%
    03:00 +16°C° 0 mm 2 mps 756 mmHg 79%
    04:00 +16°C° 0 mm 2 mps 756 mmHg 76%
    05:00 +17°C° 0 mm 2 mps 756 mmHg 74%
    06:00 +17°C° 0 mm 2 mps 757 mmHg 71%
    07:00 +19°C° 0 mm 2 mps 756 mmHg 65%
    08:00 +21°C° 0 mm 3 mps 756 mmHg 59%
    09:00 +24°C° 0 mm 3 mps 756 mmHg 54%
    10:00 +25°C° 0 mm 3 mps 756 mmHg 50%
    11:00 +26°C° 0 mm 3 mps 756 mmHg 46%
    12:00 +27°C° 0 mm 3 mps 756 mmHg 43%
    13:00 +28°C° 0 mm 3 mps 755 mmHg 43%
    14:00 +28°C° 0 mm 3 mps 755 mmHg 43%
    15:00 +28°C° 0 mm 3 mps 754 mmHg 43%
    16:00 +27°C° 0 mm 2 mps 754 mmHg 47%
    17:00 +26°C° 0 mm 2 mps 754 mmHg 52%
    18:00 +26°C° 0 mm 2 mps 753 mmHg 56%
    19:00 +24°C° 0 mm 2 mps 753 mmHg 61%
    20:00 +23°C° 0 mm 2 mps 753 mmHg 67%
    21:00 +20°C° 0 mm 2 mps 753 mmHg 72%
    22:00 +19°C° 0 mm 2 mps 753 mmHg 74%
    23:00 +18°C° 0 mm 2 mps 752 mmHg 75%

    Day after tomorrow, 3 June, Wednesday

    Time Temperature Precipitation Wind Pressure Humidity
    00:00 +18°C° 0 mm 2 mps 752 mmHg 77%
    01:00 +17°C° 0 mm 2 mps 751 mmHg 77%
    02:00 +17°C° 0 mm 2 mps 751 mmHg 77%
    03:00 +16°C° 0 mm 1 mps 751 mmHg 77%
    04:00 +17°C° 0.2 mm 2 mps 750 mmHg 76%
    05:00 +17°C° 0.2 mm 2 mps 750 mmHg 75%
    06:00 +17°C° 0.2 mm 2 mps 750 mmHg 74%
    07:00 +18°C° 0.3 mm 2 mps 749 mmHg 70%
    08:00 +19°C° 0.3 mm 2 mps 749 mmHg 67%
    09:00 +21°C° 0.3 mm 2 mps 749 mmHg 64%
    10:00 +23°C° 0.3 mm 2 mps 748 mmHg 60%
    11:00 +24°C° 0.3 mm 2 mps 748 mmHg 56%
    12:00 +25°C° 0.3 mm 2 mps 748 mmHg 52%
    13:00 +25°C° 0.3 mm 2 mps 747 mmHg 51%
    14:00 +25°C° 0.3 mm 2 mps 747 mmHg 51%
    15:00 +25°C° 0.3 mm 2 mps 746 mmHg 50%
    16:00 +24°C° 0.3 mm 2 mps 746 mmHg 56%
    17:00 +22°C° 0.3 mm 3 mps 746 mmHg 63%
    18:00 +21°C° 0.3 mm 3 mps 746 mmHg 69%
    19:00 +20°C° 0.3 mm 3 mps 746 mmHg 72%
    20:00 +19°C° 0.3 mm 3 mps 746 mmHg 75%
    21:00 +18°C° 0.3 mm 2 mps 746 mmHg 78%
    22:00 +17°C° 0.1 mm 3 mps 746 mmHg 79%
    23:00 +16°C° 0.1 mm 3 mps 746 mmHg 80%

    4 June, Thursday

    Time Temperature Precipitation Wind Pressure Humidity
    00:00 +16°C° 0.1 mm 3 mps 746 mmHg 81%
    01:00 +14°C° 0 mm 3 mps 746 mmHg 83%
    02:00 +14°C° 0 mm 3 mps 746 mmHg 86%
    03:00 +13°C° 0 mm 3 mps 746 mmHg 88%
    04:00 +13°C° 0 mm 3 mps 746 mmHg 86%
    05:00 +13°C° 0 mm 3 mps 746 mmHg 84%
    06:00 +14°C° 0 mm 3 mps 746 mmHg 81%
    07:00 +14°C° 0 mm 3 mps 746 mmHg 77%
    08:00 +16°C° 0 mm 3 mps 746 mmHg 73%
    09:00 +17°C° 0 mm 3 mps 746 mmHg 69%
    10:00 +18°C° 0 mm 3 mps 747 mmHg 65%
    11:00 +19°C° 0 mm 3 mps 747 mmHg 62%
    12:00 +20°C° 0 mm 3 mps 747 mmHg 58%
    13:00 +20°C° 0 mm 3 mps 747 mmHg 59%
    14:00 +20°C° 0 mm 3 mps 747 mmHg 59%
    15:00 +20°C° 0 mm 4 mps 747 mmHg 59%
    16:00 +19°C° 0 mm 3 mps 747 mmHg 61%
    17:00 +19°C° 0 mm 3 mps 747 mmHg 63%
    18:00 +19°C° 0 mm 3 mps 747 mmHg 65%
    19:00 +17°C° 0 mm 3 mps 747 mmHg 69%
    20:00 +16°C° 0 mm 3 mps 748 mmHg 73%
    21:00 +15°C° 0 mm 2 mps 748 mmHg 77%
    22:00 +14°C° 0 mm 2 mps 748 mmHg 78%
    23:00 +13°C° 0 mm 2 mps 748 mmHg 79%

    5 June, Friday

    Time Temperature Precipitation Wind Pressure Humidity
    00:00 +13°C° 0 mm 1 mps 748 mmHg 81%
    01:00 +12°C° 0 mm 1 mps 748 mmHg 81%
    02:00 +12°C° 0 mm 1 mps 747 mmHg 82%
    03:00 +11°C° 0 mm 1 mps 747 mmHg 83%
    04:00 +12°C° 0 mm 1 mps 747 mmHg 80%
    05:00 +13°C° 0 mm 1 mps 747 mmHg 78%
    06:00 +13°C° 0 mm 2 mps 747 mmHg 76%
    07:00 +14°C° 0 mm 3 mps 747 mmHg 68%
    08:00 +16°C° 0 mm 3 mps 747 mmHg 60%
    09:00 +18°C° 0 mm 4 mps 747 mmHg 52%
    10:00 +19°C° 0 mm 5 mps 746 mmHg 49%
    11:00 +20°C° 0 mm 5 mps 746 mmHg 46%
    12:00 +21°C° 0 mm 5 mps 746 mmHg 43%
    13:00 +21°C° 0 mm 6 mps 745 mmHg 44%
    14:00 +22°C° 0 mm 6 mps 745 mmHg 45%
    15:00 +22°C° 0 mm 6 mps 745 mmHg 45%
    16:00 +21°C° 0 mm 6 mps 745 mmHg 51%
    17:00 +19°C° 0 mm 5 mps 745 mmHg 57%
    18:00 +17°C° 0 mm 5 mps 745 mmHg 62%
    19:00 +17°C° 0 mm 5 mps 745 mmHg 64%
    20:00 +17°C° 0 mm 4 mps 745 mmHg 66%
    21:00 +15°C° 0 mm 4 mps 746 mmHg 68%
    22:00 +15°C° 0 mm 4 mps 746 mmHg 70%
    23:00 +15°C° 0 mm 4 mps 746 mmHg 72%

    6 June, Saturday

    Time Temperature Precipitation Wind Pressure Humidity
    00:00 +14°C° 0 mm 4 mps 746 mmHg 74%
    01:00 +13°C° 0 mm 4 mps 746 mmHg 74%
    02:00 +13°C° 0 mm 4 mps 746 mmHg 74%
    03:00 +12°C° 0 mm 3 mps 747 mmHg 74%
    04:00 +12°C° 0 mm 4 mps 747 mmHg 73%
    05:00 +12°C° 0 mm 4 mps 747 mmHg 73%
    06:00 +12°C° 0 mm 4 mps 748 mmHg 73%
    07:00 +13°C° 0 mm 4 mps 748 mmHg 67%
    08:00 +14°C° 0 mm 4 mps 748 mmHg 60%
    09:00 +17°C° 0 mm 4 mps 749 mmHg 54%
    10:00 +17°C° 0.2 mm 4 mps 749 mmHg 56%
    11:00 +17°C° 0.2 mm 4 mps 749 mmHg 57%
    12:00 +17°C° 0.2 mm 4 mps 749 mmHg 59%
    13:00 +17°C° 0.2 mm 4 mps 749 mmHg 57%
    14:00 +18°C° 0.2 mm 4 mps 749 mmHg 56%
    15:00 +18°C° 0.2 mm 4 mps 750 mmHg 54%
    16:00 +17°C° 0.1 mm 4 mps 750 mmHg 55%
    17:00 +17°C° 0.1 mm 4 mps 750 mmHg 56%
    18:00 +15°C° 0.1 mm 4 mps 750 mmHg 57%
    19:00 +13°C° 0 mm 4 mps 751 mmHg 58%
    20:00 +12°C° 0 mm 3 mps 751 mmHg 59%
    21:00 +11°C° 0 mm 3 mps 752 mmHg 60%
    22:00 +10°C° 0 mm 3 mps 752 mmHg 63%
    23:00 +9°C° 0 mm 2 mps 752 mmHg 65%
    Show more